Tracking 19832 objects as of 25-Aug-2019
HD Live streaming from Space Station
objects crossing your sky now

COSMOS 1709

Track COSMOS 1709 now!
10-day predictions
COSMOS 1709 is classified as:


NORAD ID: 16368
Int'l Code: 1985-116A
Perigee: 965.8 km
Apogee: 1,015.7 km
Inclination: 82.9 °
Period: 104.8 minutes
Semi major axis: 7361 km
RCS: 2.2148 m2 (large)
Launch date: December 19, 1985
Source: Commonwealth of Independent States (former USSR) (CIS)
Launch site: PLESETSK MISSILE AND SPACE COMPLEX (PKMTR)
aabbcc
Your satellite tracking list
Your tracking list is empty




NASA's NSSDC Master Catalog

Two Line Element Set (TLE):
1 16368U 85116A   19236.33191209  .00000018  00000-0  34855-5 0  9993
2 16368  82.9481 154.7405 0033892 221.0072 258.6077 13.74470217689197
Source of the keplerian elements: AFSPC